| time (UTC) | temp F | wind direction | speed knots | gust knots | rain 1hr in | rain 24hr in | rain mn in | humidity % | barometer mb |
| 20260506224556 | 73 | 0 | 0.0 | 6.1 | 0.00 | 0.00 | 0.00 | 16 | 1016.9 |
| 20260506224055 | 73 | 0 | 2.6 | 6.1 | 0.00 | 0.00 | 0.00 | 16 | 1017.1 |
| 20260506223555 | 74 | 0 | 0.9 | 6.1 | 0.00 | 0.00 | 0.00 | 18 | 1017.3 |
| 20260506223100 | 74 | 0 | 0.0 | 3.5 | 0.00 | 0.00 | 0.00 | 17 | 1017.2 |
| 20260506222553 | 73 | 0 | 0.0 | 6.1 | 0.00 | 0.00 | 0.00 | 19 | 1017.3 |
| 20260506222056 | 72 | 0 | 0.0 | 6.1 | 0.00 | 0.00 | 0.00 | 18 | 1017.3 |
| 20260506221559 | 72 | 140 | 0.0 | 5.2 | 0.00 | 0.00 | 0.00 | 18 | 1017.3 |
| 20260506221054 | 72 | 22 | 0.0 | 6.1 | 0.00 | 0.00 | 0.00 | 19 | 1017.4 |
| 20260506220555 | 72 | 0 | 3.5 | 8.7 | 0.00 | 0.00 | 0.00 | 19 | 1017.5 |
| 20260506220056 | 72 | 72 | 4.3 | 8.7 | 0.00 | 0.00 | 0.00 | 19 | 1017.5 |
| 20260506215555 | 72 | 0 | 0.9 | 6.1 | 0.00 | 0.00 | 0.00 | 20 | 1017.6 |
| 20260506215055 | 72 | 0 | 0.0 | 4.3 | 0.00 | 0.00 | 0.00 | 21 | 1017.7 |
| 20260506214604 | 72 | 0 | 0.0 | 6.1 | 0.00 | 0.00 | 0.00 | 20 | 1017.6 |
| 20260506214055 | 72 | 0 | 0.9 | 6.1 | 0.00 | 0.00 | 0.00 | 19 | 1017.7 |
| 20260506213554 | 72 | 0 | 0.0 | 5.2 | 0.00 | 0.00 | 0.00 | 21 | 1017.7 |
| 20260506213053 | 72 | 54 | 0.0 | 5.2 | 0.00 | 0.00 | 0.00 | 22 | 1017.8 |
| 20260506212554 | 71 | 0 | 1.7 | 7.8 | 0.00 | 0.00 | 0.00 | 23 | 1017.8 |
| 20260506212054 | 71 | 0 | 0.0 | 8.7 | 0.00 | 0.00 | 0.00 | 22 | 1017.8 |
| 20260506211603 | 71 | 26 | 1.7 | 8.7 | 0.00 | 0.00 | 0.00 | 23 | 1017.8 |
| 20260506211055 | 71 | 25 | 0.0 | 7.8 | 0.00 | 0.00 | 0.00 | 25 | 1017.9 |
| 20260506210553 | 70 | 0 | 0.0 | 7.8 | 0.00 | 0.00 | 0.00 | 23 | 1017.9 |
| 20260506210056 | 70 | 340 | 0.9 | 7.8 | 0.00 | 0.00 | 0.00 | 23 | 1018.0 |
| 20260506205555 | 70 | 0 | 0.9 | 7.8 | 0.00 | 0.00 | 0.00 | 25 | 1018.1 |
| 20260506205054 | 70 | 332 | 2.6 | 13.9 | 0.00 | 0.00 | 0.00 | 25 | 1018.2 |
| 20260506204600 | 70 | 0 | 1.7 | 13.9 | 0.00 | 0.00 | 0.00 | 25 | 1018.2 |
| 20260506204052 | 70 | 360 | 6.1 | 13.9 | 0.00 | 0.00 | 0.00 | 25 | 1018.2 |
| 20260506203551 | 69 | 1 | 0.9 | 6.1 | 0.00 | 0.00 | 0.00 | 28 | 1018.2 |
| 20260506203059 | 69 | 0 | 0.0 | 6.1 | 0.00 | 0.00 | 0.00 | 25 | 1018.2 |
| 20260506202555 | 70 | 0 | 1.7 | 6.1 | 0.00 | 0.00 | 0.00 | 25 | 1018.3 |
| 20260506202055 | 69 | 0 | 0.0 | 9.6 | 0.00 | 0.00 | 0.00 | 26 | 1018.4 |
| 20260506201552 | 69 | 0 | 0.9 | 9.6 | 0.00 | 0.00 | 0.00 | 26 | 1018.4 |
| 20260506201052 | 70 | 359 | 3.5 | 7.8 | 0.00 | 0.00 | 0.00 | 27 | 1018.4 |
| 20260506200555 | 69 | 360 | 1.7 | 7.8 | 0.00 | 0.00 | 0.00 | 25 | 1018.4 |
| 20260506200103 | 69 | 0 | 4.3 | 7.8 | 0.00 | 0.00 | 0.00 | 25 | 1018.5 |
| 20260506195556 | 70 | 359 | 0.0 | 7.0 | 0.00 | 0.00 | 0.00 | 25 | 1018.5 |
| 20260506195055 | 70 | 169 | 0.9 | 7.0 | 0.00 | 0.00 | 0.00 | 26 | 1018.5 |
| 20260506194606 | 68 | 0 | 0.0 | 2.6 | 0.00 | 0.00 | 0.00 | 28 | 1018.6 |
| 20260506194051 | 68 | 0 | 0.0 | 6.1 | 0.00 | 0.00 | 0.00 | 28 | 1018.7 |
| 20260506193553 | 68 | 0 | 1.7 | 6.1 | 0.00 | 0.00 | 0.00 | 26 | 1018.8 |
| 20260506193059 | 68 | 352 | 3.5 | 6.1 | 0.00 | 0.00 | 0.00 | 27 | 1018.8 |
| 20260506192554 | 68 | 332 | 0.9 | 7.8 | 0.00 | 0.00 | 0.00 | 28 | 1018.8 |
| 20260506192054 | 67 | 353 | 2.6 | 9.6 | 0.00 | 0.00 | 0.00 | 29 | 1018.9 |
| 20260506191607 | 67 | 0 | 3.5 | 9.6 | 0.00 | 0.00 | 0.00 | 29 | 1019.0 |
| 20260506191054 | 67 | 1 | 4.3 | 7.8 | 0.00 | 0.00 | 0.00 | 30 | 1019.0 |
| 20260506190555 | 67 | 0 | 0.0 | 7.0 | 0.00 | 0.00 | 0.00 | 29 | 1019.1 |
| 20260506190059 | 66 | 9 | 1.7 | 9.6 | 0.00 | 0.00 | 0.00 | 30 | 1019.1 |
| 20260506185552 | 66 | 0 | 2.6 | 9.6 | 0.00 | 0.00 | 0.00 | 29 | 1019.2 |
| 20260506185055 | 66 | 15 | 2.6 | 9.6 | 0.00 | 0.00 | 0.00 | 32 | 1019.0 |
| 20260506184558 | 66 | 360 | 2.6 | 6.1 | 0.00 | 0.00 | 0.00 | 34 | 1019.1 |
| 20260506184056 | 66 | 0 | 0.0 | 7.0 | 0.00 | 0.00 | 0.00 | 35 | 1019.1 |
| 20260506183555 | 65 | 0 | 0.9 | 7.0 | 0.00 | 0.00 | 0.00 | 35 | 1019.2 |
| 20260506183123 | 65 | 357 | 4.3 | 7.0 | 0.00 | 0.00 | 0.00 | 35 | 1019.2 |
| 20260506182554 | 65 | 360 | 1.7 | 4.3 | 0.00 | 0.00 | 0.00 | 35 | 1019.3 |
| 20260506182054 | 65 | 0 | 1.7 | 5.2 | 0.00 | 0.00 | 0.00 | 35 | 1019.3 |
| 20260506181602 | 65 | 22 | 1.7 | 7.0 | 0.00 | 0.00 | 0.00 | 36 | 1019.3 |
| 20260506181056 | 66 | 39 | 0.9 | 7.0 | 0.00 | 0.00 | 0.00 | 36 | 1019.6 |
| 20260506180552 | 65 | 146 | 1.7 | 6.1 | 0.00 | 0.00 | 0.00 | 36 | 1019.5 |
| 20260506180115 | 64 | 117 | 0.9 | 7.0 | 0.00 | 0.00 | 0.00 | 37 | 1019.5 |
| 20260506175555 | 63 | 0 | 2.6 | 7.0 | 0.00 | 0.00 | 0.00 | 38 | 1019.5 |
| 20260506175053 | 63 | 0 | 2.6 | 7.0 | 0.00 | 0.00 | 0.00 | 39 | 1019.5 |
| 20260506174557 | 63 | 0 | 1.7 | 7.0 | 0.00 | 0.00 | 0.00 | 37 | 1019.4 |
| 20260506174053 | 64 | 19 | 0.9 | 4.3 | 0.00 | 0.00 | 0.00 | 38 | 1019.3 |
| 20260506173555 | 63 | 0 | 0.0 | 6.1 | 0.00 | 0.00 | 0.00 | 38 | 1019.5 |
| 20260506173126 | 62 | 0 | 0.0 | 6.1 | 0.00 | 0.00 | 0.00 | 38 | 1019.5 |
| 20260506172552 | 62 | 0 | 0.9 | 7.0 | 0.00 | 0.00 | 0.00 | 39 | 1019.5 |
| 20260506172053 | 62 | 0 | 1.7 | 7.0 | 0.00 | 0.00 | 0.00 | 40 | 1019.5 |
| 20260506171557 | 62 | 1 | 1.7 | 6.1 | 0.00 | 0.00 | 0.00 | 39 | 1019.5 |
| 20260506171056 | 62 | 0 | 0.9 | 6.1 | 0.00 | 0.00 | 0.00 | 40 | 1019.4 |
| 20260506170554 | 61 | 0 | 0.0 | 0.0 | 0.00 | 0.00 | 0.00 | 38 | 1019.5 |
| 20260506170057 | 61 | 0 | 0.0 | 5.2 | 0.00 | 0.00 | 0.00 | 40 | 1019.5 |
| 20260506165554 | 61 | 0 | 0.9 | 5.2 | 0.00 | 0.00 | 0.00 | 39 | 1019.4 |
| 20260506165056 | 61 | 0 | 0.9 | 5.2 | 0.00 | 0.00 | 0.00 | 39 | 1019.3 |
| 20260506164558 | 61 | 0 | 1.7 | 7.0 | 0.00 | 0.00 | 0.00 | 41 | 1019.3 |
| 20260506164053 | 61 | 59 | 3.5 | 7.0 | 0.00 | 0.00 | 0.00 | 41 | 1019.3 |
| 20260506163554 | 60 | 33 | 0.0 | 4.3 | 0.00 | 0.00 | 0.00 | 42 | 1019.3 |
| 20260506163106 | 60 | 0 | 0.0 | 4.3 | 0.00 | 0.00 | 0.00 | 42 | 1019.3 |
| 20260506162558 | 60 | 0 | 0.0 | 5.2 | 0.00 | 0.00 | 0.00 | 42 | 1019.3 |
| 20260506162054 | 60 | 0 | 0.0 | 6.1 | 0.00 | 0.00 | 0.00 | 43 | 1019.1 |
| 20260506161558 | 59 | 0 | 0.0 | 6.1 | 0.00 | 0.00 | 0.00 | 43 | 1019.2 |
| 20260506161054 | 59 | 8 | 3.5 | 6.1 | 0.00 | 0.00 | 0.00 | 43 | 1019.1 |
| 20260506160557 | 59 | 0 | 0.0 | 6.1 | 0.00 | 0.00 | 0.00 | 44 | 1019.1 |
| 20260506160103 | 59 | 19 | 0.9 | 6.1 | 0.00 | 0.00 | 0.00 | 44 | 1019.1 |
| 20260506155556 | 59 | 29 | 0.9 | 7.0 | 0.00 | 0.00 | 0.00 | 43 | 1019.1 |
| 20260506155056 | 58 | 0 | 0.9 | 7.0 | 0.00 | 0.00 | 0.00 | 45 | 1019.1 |
| 20260506154557 | 58 | 20 | 0.9 | 5.2 | 0.00 | 0.00 | 0.00 | 44 | 1019.1 |
| 20260506154054 | 58 | 7 | 0.0 | 6.1 | 0.00 | 0.00 | 0.00 | 48 | 1019.1 |
| 20260506153601 | 58 | 354 | 0.9 | 6.1 | 0.00 | 0.00 | 0.00 | 47 | 1019.2 |
| 20260506153058 | 58 | 0 | 0.9 | 5.2 | 0.00 | 0.00 | 0.00 | 48 | 1019.3 |
| 20260506152554 | 58 | 359 | 0.0 | 4.3 | 0.00 | 0.00 | 0.00 | 48 | 1019.2 |
| 20260506152056 | 57 | 0 | 0.0 | 4.3 | 0.00 | 0.00 | 0.00 | 50 | 1019.1 |
| 20260506151554 | 57 | 0 | 0.0 | 0.0 | 0.00 | 0.00 | 0.00 | 51 | 1019.3 |
| 20260506151054 | 56 | 0 | 0.0 | 0.0 | 0.00 | 0.00 | 0.00 | 53 | 1019.3 |
| 20260506150557 | 56 | 0 | 0.0 | 0.9 | 0.00 | 0.00 | 0.00 | 54 | 1019.3 |
| 20260506150100 | 56 | 0 | 0.0 | 0.9 | 0.00 | 0.00 | 0.00 | 55 | 1019.4 |
| 20260506145553 | 56 | 0 | 0.0 | 0.0 | 0.00 | 0.00 | 0.00 | 56 | 1019.3 |
| 20260506145056 | 55 | 0 | 0.0 | 3.5 | 0.00 | 0.00 | 0.00 | 57 | 1019.2 |
| 20260506144607 | 55 | 0 | 0.0 | 3.5 | 0.00 | 0.00 | 0.00 | 57 | 1019.2 |
| 20260506144056 | 55 | 0 | 0.0 | 3.5 | 0.00 | 0.00 | 0.00 | 57 | 1019.2 |
| 20260506143557 | 55 | 0 | 0.0 | 3.5 | 0.00 | 0.00 | 0.00 | 58 | 1019.3 |
| 20260506143059 | 55 | 0 | 0.0 | 3.5 | 0.00 | 0.00 | 0.00 | 61 | 1019.2 |
| 20260506142556 | 55 | 0 | 0.0 | 3.5 | 0.00 | 0.00 | 0.00 | 62 | 1019.2 |
| 20260506142054 | 54 | 0 | 0.0 | 4.3 | 0.00 | 0.00 | 0.00 | 60 | 1019.2 |
| 20260506141600 | 54 | 0 | 0.9 | 4.3 | 0.00 | 0.00 | 0.00 | 56 | 1019.3 |
| 20260506141054 | 54 | 1 | 0.9 | 4.3 | 0.00 | 0.00 | 0.00 | 56 | 1019.2 |
| 20260506140554 | 54 | 0 | 0.0 | 0.0 | 0.00 | 0.00 | 0.00 | 56 | 1019.1 |
| 20260506140055 | 53 | 0 | 0.0 | 0.0 | 0.00 | 0.00 | 0.00 | 57 | 1018.9 |
| 20260506135553 | 52 | 0 | 0.0 | 0.0 | 0.00 | 0.00 | 0.00 | 62 | 1018.9 |
| 20260506135056 | 51 | 0 | 0.0 | 0.0 | 0.00 | 0.00 | 0.00 | 65 | 1018.9 |
| 20260506134555 | 51 | 0 | 0.0 | 0.0 | 0.00 | 0.00 | 0.00 | 68 | 1018.9 |
| 20260506134054 | 50 | 0 | 0.0 | 0.0 | 0.00 | 0.00 | 0.00 | 71 | 1018.9 |
| 20260506133554 | 49 | 0 | 0.0 | 0.0 | 0.00 | 0.00 | 0.00 | 73 | 1018.9 |
| 20260506133101 | 48 | 0 | 0.0 | 0.0 | 0.00 | 0.00 | 0.00 | 75 | 1018.8 |
| 20260506132552 | 47 | 0 | 0.0 | 0.0 | 0.00 | 0.00 | 0.00 | 77 | 1018.8 |
| 20260506132056 | 47 | 0 | 0.0 | 0.0 | 0.00 | 0.00 | 0.00 | 77 | 1018.9 |
| 20260506131554 | 46 | 0 | 0.0 | 0.0 | 0.00 | 0.00 | 0.00 | 78 | 1018.8 |
| 20260506131053 | 46 | 0 | 0.0 | 0.0 | 0.00 | 0.00 | 0.00 | 78 | 1018.8 |
| 20260506130554 | 46 | 0 | 0.0 | 0.0 | 0.00 | 0.00 | 0.00 | 79 | 1018.7 |
| 20260506130053 | 45 | 0 | 0.0 | 0.0 | 0.00 | 0.00 | 0.00 | 78 | 1018.6 |
| 20260506125553 | 45 | 0 | 0.0 | 0.0 | 0.00 | 0.01 | 0.00 | 78 | 1018.6 |
| 20260506125053 | 45 | 0 | 0.0 | 0.0 | 0.00 | 0.01 | 0.00 | 78 | 1018.5 |
| 20260506124552 | 44 | 0 | 0.0 | 0.0 | 0.00 | 0.01 | 0.00 | 79 | 1018.4 |
| 20260506124057 | 44 | 0 | 0.0 | 0.0 | 0.00 | 0.01 | 0.00 | 79 | 1018.4 |
| 20260506123554 | 44 | 0 | 0.0 | 0.0 | 0.00 | 0.01 | 0.00 | 79 | 1018.3 |
| 20260506123056 | 44 | 0 | 0.0 | 0.0 | 0.00 | 0.01 | 0.00 | 80 | 1018.2 |
| 20260506122555 | 44 | 0 | 0.0 | 0.0 | 0.00 | 0.01 | 0.00 | 81 | 1018.0 |
| 20260506122057 | 43 | 0 | 0.0 | 0.0 | 0.00 | 0.01 | 0.00 | 81 | 1018.0 |
| 20260506121556 | 43 | 0 | 0.0 | 0.0 | 0.00 | 0.01 | 0.00 | 80 | 1017.9 |
| 20260506121054 | 43 | 0 | 0.0 | 0.0 | 0.00 | 0.01 | 0.00 | 80 | 1017.7 |
| 20260506120551 | 44 | 0 | 0.0 | 4.3 | 0.00 | 0.01 | 0.00 | 79 | 1017.7 |
| 20260506120055 | 44 | 0 | 0.0 | 4.3 | 0.00 | 0.01 | 0.00 | 80 | 1017.7 |
| 20260506115558 | 44 | 236 | 2.6 | 4.3 | 0.00 | 0.02 | 0.00 | 81 | 1017.6 |
| 20260506115051 | 44 | 0 | 0.0 | 0.0 | 0.00 | 0.02 | 0.00 | 81 | 1017.6 |
| 20260506114555 | 44 | 0 | 0.0 | 0.0 | 0.00 | 0.02 | 0.00 | 81 | 1017.7 |
| 20260506114053 | 44 | 0 | 0.0 | 0.0 | 0.00 | 0.02 | 0.00 | 81 | 1017.7 |
| 20260506113557 | 44 | 0 | 0.0 | 3.5 | 0.00 | 0.02 | 0.00 | 81 | 1017.8 |
| 20260506113057 | 44 | 0 | 0.0 | 3.5 | 0.00 | 0.02 | 0.00 | 80 | 1017.7 |
| 20260506112554 | 44 | 239 | 0.0 | 2.6 | 0.00 | 0.02 | 0.00 | 80 | 1017.7 |
| 20260506112054 | 44 | 0 | 0.0 | 2.6 | 0.00 | 0.02 | 0.00 | 81 | 1017.7 |
| 20260506111558 | 44 | 0 | 0.0 | 0.0 | 0.00 | 0.02 | 0.00 | 81 | 1017.7 |
| 20260506111058 | 44 | 0 | 0.0 | 0.0 | 0.00 | 0.02 | 0.00 | 80 | 1017.6 |
| 20260506110554 | 44 | 0 | 0.0 | 0.0 | 0.00 | 0.02 | 0.00 | 80 | 1017.7 |
| 20260506110055 | 44 | 0 | 0.0 | 0.0 | 0.00 | 0.02 | 0.00 | 79 | 1017.7 |
| 20260506105554 | 45 | 0 | 0.0 | 0.0 | 0.00 | 0.04 | 0.00 | 78 | 1017.7 |
| 20260506105058 | 45 | 0 | 0.0 | 0.0 | 0.00 | 0.04 | 0.00 | 77 | 1017.7 |
| 20260506104600 | 46 | 0 | 0.0 | 0.0 | 0.00 | 0.04 | 0.00 | 77 | 1017.7 |
| 20260506104057 | 46 | 0 | 0.0 | 0.0 | 0.00 | 0.04 | 0.00 | 76 | 1017.6 |
| 20260506103556 | 46 | 0 | 0.0 | 0.0 | 0.00 | 0.04 | 0.00 | 75 | 1017.6 |
| 20260506103057 | 47 | 0 | 0.0 | 0.0 | 0.00 | 0.04 | 0.00 | 75 | 1017.6 |
| 20260506102556 | 48 | 0 | 0.0 | 0.0 | 0.00 | 0.04 | 0.00 | 74 | 1017.5 |
| 20260506102055 | 48 | 0 | 0.0 | 0.0 | 0.00 | 0.04 | 0.00 | 74 | 1017.6 |
| 20260506101556 | 48 | 0 | 0.0 | 0.0 | 0.00 | 0.04 | 0.00 | 74 | 1017.6 |
| 20260506101057 | 48 | 0 | 0.0 | 0.0 | 0.00 | 0.04 | 0.00 | 74 | 1017.6 |
| 20260506100554 | 48 | 0 | 0.0 | 0.0 | 0.00 | 0.04 | 0.00 | 74 | 1017.6 |
| 20260506095556 | 49 | 0 | 0.0 | 0.0 | 0.00 | 0.04 | 0.00 | 73 | 1017.5 |
| 20260506095055 | 49 | 0 | 0.0 | 0.0 | 0.00 | 0.04 | 0.00 | 73 | 1017.5 |
| 20260506094611 | 49 | 0 | 0.0 | 0.0 | 0.00 | 0.04 | 0.00 | 72 | 1017.5 |
| 20260506094057 | 49 | 0 | 0.0 | 0.0 | 0.00 | 0.04 | 0.00 | 73 | 1017.6 |
| 20260506093557 | 49 | 0 | 0.0 | 0.0 | 0.00 | 0.04 | 0.00 | 73 | 1017.6 |
| 20260506093102 | 49 | 0 | 0.0 | 0.0 | 0.00 | 0.04 | 0.00 | 73 | 1017.6 |
| 20260506092553 | 49 | 0 | 0.0 | 0.0 | 0.00 | 0.04 | 0.00 | 73 | 1017.6 |
| 20260506092054 | 49 | 0 | 0.0 | 0.0 | 0.00 | 0.04 | 0.00 | 74 | 1017.6 |
| 20260506091606 | 49 | 0 | 0.0 | 0.0 | 0.00 | 0.04 | 0.00 | 74 | 1017.6 |
| 20260506091056 | 49 | 0 | 0.0 | 0.0 | 0.00 | 0.04 | 0.00 | 72 | 1017.4 |
| 20260506090553 | 50 | 0 | 0.0 | 0.0 | 0.00 | 0.04 | 0.00 | 73 | 1017.5 |
| 20260506085553 | 50 | 0 | 0.0 | 0.0 | 0.00 | 0.04 | 0.00 | 72 | 1017.3 |
| 20260506085057 | 50 | 0 | 0.0 | 0.0 | 0.00 | 0.04 | 0.00 | 72 | 1017.3 |
| 20260506084601 | 50 | 0 | 0.0 | 0.0 | 0.00 | 0.04 | 0.00 | 71 | 1017.3 |
| 20260506084057 | 50 | 0 | 0.0 | 0.0 | 0.00 | 0.04 | 0.00 | 70 | 1017.4 |
| 20260506083557 | 51 | 0 | 0.0 | 0.0 | 0.00 | 0.04 | 0.00 | 69 | 1017.4 |
| 20260506083101 | 51 | 0 | 0.0 | 0.0 | 0.00 | 0.04 | 0.00 | 68 | 1017.4 |
| 20260506082554 | 51 | 0 | 0.0 | 0.0 | 0.00 | 0.04 | 0.00 | 67 | 1017.5 |
| 20260506082053 | 52 | 0 | 0.0 | 0.0 | 0.00 | 0.04 | 0.00 | 66 | 1017.4 |
| 20260506081558 | 52 | 0 | 0.0 | 0.0 | 0.00 | 0.04 | 0.00 | 65 | 1017.6 |
| 20260506081054 | 52 | 0 | 0.0 | 0.9 | 0.00 | 0.04 | 0.00 | 65 | 1017.6 |
| 20260506080554 | 53 | 0 | 0.0 | 0.9 | 0.00 | 0.04 | 0.00 | 64 | 1017.7 |
| 20260506080108 | 53 | 0 | 0.0 | 0.0 | 0.00 | 0.04 | 0.00 | 64 | 1017.6 |
| 20260506073106 | 55 | 0 | 1.7 | 5.2 | 0.00 | 0.04 | 0.00 | 59 | 1017.7 |
| 20260506072554 | 55 | 307 | 0.9 | 4.3 | 0.00 | 0.04 | 0.00 | 58 | 1017.6 |
| 20260506072055 | 55 | 0 | 0.0 | 4.3 | 0.00 | 0.04 | 0.00 | 58 | 1017.7 |
| 20260506071557 | 55 | 299 | 0.0 | 8.7 | 0.00 | 0.04 | 0.00 | 57 | 1017.6 |
| 20260506071058 | 55 | 355 | 4.3 | 8.7 | 0.00 | 0.04 | 0.00 | 57 | 1017.7 |
| 20260506070554 | 55 | 227 | 0.9 | 7.0 | 0.00 | 0.04 | 0.00 | 59 | 1017.8 |
| 20260506062052 | 55 | 0 | 0.0 | 0.0 | 0.00 | 0.04 | 0.04 | 54 | 1017.3 |
| 20260506061552 | 56 | 0 | 0.0 | 4.3 | 0.00 | 0.04 | 0.04 | 53 | 1017.3 |
| 20260506061054 | 56 | 0 | 0.0 | 7.0 | 0.00 | 0.04 | 0.04 | 52 | 1017.3 |
| 20260506060552 | 56 | 0 | 0.0 | 7.0 | 0.00 | 0.04 | 0.04 | 51 | 1017.2 |
| 20260506051054 | 57 | 0 | 0.0 | 4.3 | 0.00 | 0.04 | 0.04 | 49 | 1016.5 |
| 20260506050551 | 57 | 0 | 0.0 | 6.1 | 0.00 | 0.04 | 0.04 | 49 | 1016.4 |
| 20260506045056 | 57 | 0 | 0.0 | 8.7 | 0.00 | 0.04 | 0.04 | 48 | 1016.3 |
| 20260506044554 | 58 | 0 | 1.7 | 9.6 | 0.00 | 0.04 | 0.04 | 47 | 1016.2 |
| 20260506044055 | 58 | 171 | 0.0 | 9.6 | 0.00 | 0.04 | 0.04 | 47 | 1016.1 |
| 20260506043553 | 58 | 207 | 2.6 | 6.1 | 0.00 | 0.04 | 0.04 | 46 | 1015.9 |
| 20260506043102 | 58 | 217 | 1.7 | 6.1 | 0.00 | 0.04 | 0.04 | 46 | 1015.9 |
| 20260506042555 | 58 | 0 | 1.7 | 7.8 | 0.00 | 0.04 | 0.04 | 45 | 1015.9 |
| 20260506042057 | 59 | 189 | 2.6 | 8.7 | 0.00 | 0.04 | 0.04 | 45 | 1015.8 |
| 20260506041556 | 59 | 180 | 2.6 | 8.7 | 0.00 | 0.04 | 0.04 | 45 | 1015.7 |
| 20260506041054 | 59 | 184 | 0.9 | 8.7 | 0.00 | 0.04 | 0.04 | 45 | 1015.8 |
| 20260506040556 | 59 | 207 | 2.6 | 7.8 | 0.00 | 0.04 | 0.04 | 45 | 1015.5 |
| 20260506040056 | 59 | 210 | 2.6 | 11.3 | 0.00 | 0.04 | 0.04 | 45 | 1015.5 |
| 20260506035554 | 59 | 194 | 2.6 | 11.3 | 0.00 | 0.04 | 0.04 | 45 | 1015.4 |
| 20260506035057 | 59 | 200 | 3.5 | 10.4 | 0.00 | 0.04 | 0.04 | 44 | 1015.4 |
| 20260506034558 | 60 | 213 | 3.5 | 7.8 | 0.00 | 0.04 | 0.04 | 44 | 1015.3 |
| 20260506034056 | 60 | 186 | 1.7 | 10.4 | 0.00 | 0.04 | 0.04 | 43 | 1015.3 |
| 20260506033555 | 60 | 193 | 2.6 | 10.4 | 0.00 | 0.04 | 0.04 | 42 | 1015.2 |
| 20260506033114 | 60 | 230 | 4.3 | 13.0 | 0.00 | 0.04 | 0.04 | 41 | 1015.2 |
| 20260506032556 | 60 | 175 | 3.5 | 13.0 | 0.00 | 0.04 | 0.04 | 41 | 1015.1 |
| 20260506032056 | 60 | 221 | 3.5 | 10.4 | 0.00 | 0.04 | 0.04 | 40 | 1015.1 |
| 20260506031554 | 60 | 186 | 4.3 | 10.4 | 0.00 | 0.04 | 0.04 | 40 | 1015.0 |
| 20260506031054 | 60 | 256 | 3.5 | 11.3 | 0.00 | 0.04 | 0.04 | 39 | 1014.9 |
| 20260506030555 | 61 | 216 | 2.6 | 12.2 | 0.00 | 0.04 | 0.04 | 38 | 1014.8 |
| 20260506025554 | 61 | 293 | 4.3 | 9.6 | 0.00 | 0.04 | 0.04 | 37 | 1014.6 |
| 20260506025057 | 61 | 271 | 4.3 | 8.7 | 0.00 | 0.04 | 0.04 | 37 | 1014.5 |
| 20260506024614 | 61 | 269 | 3.5 | 12.2 | 0.00 | 0.04 | 0.04 | 36 | 1014.3 |
| 20260506024055 | 61 | 248 | 5.2 | 12.2 | 0.00 | 0.04 | 0.04 | 35 | 1014.3 |
| 20260506023555 | 62 | 293 | 4.3 | 10.4 | 0.00 | 0.04 | 0.04 | 35 | 1014.3 |
| 20260506023103 | 62 | 243 | 4.3 | 13.9 | 0.00 | 0.04 | 0.04 | 35 | 1014.3 |
| 20260506022554 | 62 | 191 | 4.3 | 13.9 | 0.00 | 0.04 | 0.04 | 35 | 1014.1 |
| 20260506022056 | 62 | 302 | 6.1 | 13.9 | 0.00 | 0.04 | 0.04 | 34 | 1014.0 |
| 20260506021600 | 63 | 250 | 4.3 | 12.2 | 0.00 | 0.04 | 0.04 | 34 | 1013.9 |
| 20260506021059 | 63 | 248 | 4.3 | 9.6 | 0.00 | 0.04 | 0.04 | 33 | 1013.9 |
| 20260506020553 | 63 | 256 | 3.5 | 16.5 | 0.00 | 0.04 | 0.04 | 33 | 1013.8 |
| 20260506020055 | 63 | 269 | 6.1 | 16.5 | 0.00 | 0.04 | 0.04 | 32 | 1013.7 |
| 20260506015600 | 64 | 256 | 4.3 | 10.4 | 0.00 | 0.04 | 0.04 | 32 | 1013.6 |
| 20260506015055 | 64 | 0 | 0.9 | 8.7 | 0.00 | 0.04 | 0.04 | 32 | 1013.6 |
| 20260506014557 | 65 | 280 | 0.0 | 9.6 | 0.00 | 0.04 | 0.04 | 31 | 1013.5 |
| 20260506014056 | 66 | 255 | 1.7 | 9.6 | 0.00 | 0.04 | 0.04 | 31 | 1013.4 |
| 20260506013553 | 66 | 243 | 1.7 | 10.4 | 0.00 | 0.04 | 0.04 | 30 | 1013.5 |
| 20260506013101 | 67 | 0 | 5.2 | 12.2 | 0.00 | 0.04 | 0.04 | 27 | 1013.3 |
| 20260506012555 | 67 | 250 | 5.2 | 14.8 | 0.00 | 0.04 | 0.04 | 27 | 1013.3 |
| 20260506012057 | 67 | 250 | 5.2 | 14.8 | 0.00 | 0.04 | 0.04 | 27 | 1013.3 |
| 20260506011620 | 67 | 259 | 6.1 | 13.0 | 0.00 | 0.04 | 0.04 | 27 | 1013.2 |
| 20260506011054 | 68 | 243 | 6.1 | 12.2 | 0.00 | 0.04 | 0.04 | 26 | 1013.2 |
| 20260506010554 | 68 | 219 | 5.2 | 11.3 | 0.00 | 0.04 | 0.04 | 26 | 1013.1 |
| 20260506010115 | 69 | 260 | 5.2 | 11.3 | 0.00 | 0.04 | 0.04 | 26 | 1013.0 |
| 20260506005557 | 69 | 224 | 5.2 | 11.3 | 0.00 | 0.04 | 0.04 | 25 | 1013.0 |
| 20260506005059 | 69 | 224 | 5.2 | 11.3 | 0.00 | 0.04 | 0.04 | 26 | 1012.9 |
| 20260506004555 | 70 | 246 | 6.1 | 12.2 | 0.00 | 0.04 | 0.04 | 26 | 1012.9 |
| 20260506004056 | 70 | 231 | 4.3 | 14.8 | 0.00 | 0.04 | 0.04 | 27 | 1012.8 |
| 20260506003555 | 70 | 257 | 5.2 | 14.8 | 0.00 | 0.04 | 0.04 | 27 | 1012.8 |
| 20260506003057 | 69 | 272 | 5.2 | 14.8 | 0.00 | 0.04 | 0.04 | 26 | 1012.8 |
| 20260506002553 | 69 | 264 | 6.1 | 18.2 | 0.00 | 0.04 | 0.04 | 26 | 1012.7 |
| 20260506002054 | 69 | 256 | 7.0 | 18.2 | 0.00 | 0.04 | 0.04 | 26 | 1012.7 |
| 20260506001558 | 71 | 254 | 5.2 | 13.0 | 0.00 | 0.04 | 0.04 | 26 | 1012.7 |
| 20260506001055 | 71 | 252 | 6.1 | 12.2 | 0.00 | 0.04 | 0.04 | 25 | 1012.7 |
| 20260506000558 | 71 | 226 | 5.2 | 12.2 | 0.00 | 0.04 | 0.04 | 26 | 1012.7 |
| 20260506000058 | 71 | 271 | 6.1 | 12.2 | 0.00 | 0.04 | 0.04 | 27 | 1012.7 |
| 20260505235556 | 72 | 255 | 5.2 | 11.3 | 0.00 | 0.04 | 0.04 | 26 | 1012.7 |
| 20260505235055 | 72 | 252 | 3.5 | 10.4 | 0.00 | 0.04 | 0.04 | 26 | 1012.5 |
| 20260505234554 | 73 | 252 | 6.1 | 13.0 | 0.00 | 0.04 | 0.04 | 25 | 1012.6 |
| 20260505234053 | 73 | 255 | 5.2 | 13.0 | 0.00 | 0.04 | 0.04 | 25 | 1012.6 |
| 20260505233555 | 73 | 251 | 5.2 | 11.3 | 0.00 | 0.04 | 0.04 | 25 | 1012.6 |
| 20260505233053 | 74 | 0 | 3.5 | 18.2 | 0.00 | 0.04 | 0.04 | 25 | 1012.7 |
| 20260505232556 | 73 | 199 | 5.2 | 18.2 | 0.00 | 0.04 | 0.04 | 25 | 1012.7 |
| 20260505232055 | 73 | 193 | 7.0 | 18.2 | 0.00 | 0.04 | 0.04 | 24 | 1012.7 |
| 20260505231555 | 74 | 262 | 5.2 | 13.0 | 0.00 | 0.04 | 0.04 | 25 | 1012.5 |
| 20260505231055 | 74 | 255 | 5.2 | 13.0 | 0.00 | 0.04 | 0.04 | 25 | 1012.6 |
| 20260505230555 | 74 | 259 | 6.1 | 13.0 | 0.00 | 0.04 | 0.04 | 26 | 1012.7 |
| 20260505230100 | 74 | 233 | 1.7 | 10.4 | 0.00 | 0.04 | 0.04 | 25 | 1012.6 |
| 20260505225555 | 73 | 248 | 0.0 | 10.4 | 0.00 | 0.04 | 0.04 | 26 | 1012.6 |
| 20260505225055 | 72 | 224 | 2.6 | 10.4 | 0.00 | 0.04 | 0.04 | 28 | 1012.7 |